Judi Bola Online

Jackpot

Texas Poker Multi Jackpot System

Kini Telah hadir Jackpot SUPER ROYAL FLUSH

Kini Telah hadir Jackpot 2000 (khusus table VIP keatas).

Ikutilah global jackpot yang tersedia di system kami, dengan system jackpot terbaru dan pertama di indonesia, anda dapat membeli jackpot dengan harga 100 rupiah saja dan menangkan hadiahnya hingga puluhan juta rupiah.

Jackpot bukanlah suatu keharusan untuk dibeli, namun kami memberikan suatu fitur tambahan untuk member tercinta dari www.v88pkr.com.

Terdapat tiga pilihan harga jackpot yang bisa anda beli yaitu :100,500,1000 dan 2000(khusus table VIP Keatas) rupiah.

Hadiah dari Multi jackpot system www.v88pkr.com

  1. full house x 10 harga jackpot yang anda beli.
      (contoh:anda membeli 1000 maka:1000 X10 = 10.000)
  2. four of kind x 250 harga jackpot yang anda beli
      (contoh:anda membeli 1000 maka:1000 X250 = 250.000)
  3. Straight flush x 1200
      (contoh:anda membeli 1000 maka:1000 X1200 = 1.200.000)
  4. Royal flush x 10000 harga jackpot yang anda beli
      (contoh:anda membeli 1000 maka:1000 X10000 = 10.000.000)
  5. SUPER ROYAL FLUSH x 30000 harga jackpot yang anda beli
      (contoh:anda membeli 1000 maka:1000 X30000 = 30.000.000)

Kondisi kartu

  1. full house adalah kondisi kartu dimana kartu anda dan kartu tengah dengan total 7 kartu bisa mendapatkan nilai 5 kartu dengan kombinasi 1 tris(three of kind) dan 1 pair, contoh 3 kartu 10 dan 2 kartu 5
  2. Four of kind adalah kondisi kartu dimana kartu anda dan kartu tengah dengan total 7 kartu bisa mendapatkan nilai 5 kartu dengan kombinasi 4 kartu yang sama jumlah dan 1 kartu apapun juga contoh anda mendapatkan 4 buah kartu angka 3 dan 1 kartu apapun.
  3. Staright flush adalah kondisi kartu dimana kartu anda dan kartu tengah dengan total 7 kartu bisa mendapatkan nilai 5 kartu dengan kombinasi seri / staright dengan kembang yang sama contoh : urutan kartu dari angka 5, 6, 7, 8 , 9 10 dengan kembang yg sama misalnya as hati
  4. Royal flush adalah kondisi kartu dimana kartu anda dan kartu tengah dengan total 7 kartu bisa mendapatkan nilai 5 kartu dengan kombinasi seri / staright dengan kembang yang sama tetapi kartu tersebut haruslah dimulai dari 10. contoh 10, Queen, Jack, King dan aces dengan kembang yang sama
  5. Super Royal flush adalah kondisi kartu dimana Kedua kartu anda digabung dengan 3 kartu pertama meja haruslah royal flush. contoh kartu anda 10,Queen kembang sama dan 3 kartu pertama meja adalah Jack, King dan aces dengan kembang yang sama

Demikian adalah penjelasan dari Multi Jackpot www.v88pkr.com terima kasih dan selamat bermain salam hoki dari kami

Texas Poker Jackpot Winner

TOP SUPER ROYAL FLUSH
No.TanggalNamaPriceWin
124/01 07:55THEWALKERSuper Royal flush3,000,000
224/01 05:25WEDF2PFJSuper Royal flush3,000,000
323/01 23:32KHOEJUNSuper Royal flush30,000,000
423/01 13:16KITICSuper Royal flush3,000,000
522/01 21:21XYXGICUUBZSuper Royal flush15,000,000
TOP ROYAL FLUSH
No.TanggalNamaPriceWin
124/01 09:26RFS7Royal flush1,000,000
224/01 09:22STEVENKARoyal flush5,000,000
324/01 09:09BOWUOKRoyal flush5,000,000
424/01 08:31OPUNGMSRoyal flush5,000,000
524/01 08:31BECO28Royal flush5,000,000
TOP STRAIGHT FLUSH
No.TanggalNamaPriceWin
124/01 09:53ZULBOS00Straight Flush120,000
224/01 09:50FIRZ77Straight Flush600,000
324/01 09:50WEDOK87Straight Flush600,000
424/01 09:49MV532727Straight Flush1,200,000
524/01 09:49RONGGUStraight Flush600,000
LATEST JACKPOT
No.TanggalNamaPriceWin
124/01 09:54TUMHIHO19Full House5,000
224/01 09:54OPISHAMUXZFull House5,000
324/01 09:54EVI80Full House5,000
424/01 09:54PALBHASFull House1,000
524/01 09:54ONLYON1985Full House5,000
624/01 09:53WILMANJPFour Of A Kind125,000
724/01 09:53OTELLO_07Full House1,000
824/01 09:53CRIOFull House5,000
924/01 09:53AWG2010Full House10,000
1024/01 09:53SEMVACK07Four Of A Kind125,000
1124/01 09:53ASOXAFull House1,000
1224/01 09:53ZULBOS00Straight Flush120,000
1324/01 09:53MUNTHEJR07Full House20,000
1424/01 09:53Z4MPIT73Full House10,000
1524/01 09:53MARCHOZXFull House10,000
1624/01 09:53CEUTBEREUMFull House10,000
1724/01 09:53FADILA89Full House1,000
1824/01 09:53B4SR0KFull House1,000
1924/01 09:53AYUNK89Full House5,000
2024/01 09:53ZHUEIFull House1,000
2124/01 09:53DOANG1Full House20,000
2224/01 09:53DEWAA98Full House5,000
2324/01 09:53WAYAN992Full House1,000
2424/01 09:53KIT3NGFull House5,000
2524/01 09:53WEDOK87Full House5,000
2624/01 09:53G4L4NG55Full House5,000
2724/01 09:53JINGGOHFull House5,000
2824/01 09:53KP566991Full House1,000
2924/01 09:53TOAN01Full House1,000
3024/01 09:53MYSPACY03Four Of A Kind125,000
3124/01 09:52C9DAF795Full House1,000
3224/01 09:52CAPRE5Full House1,000
3324/01 09:52REMIIX06Four Of A Kind125,000
3424/01 09:52OGGNEZ88Full House1,000
3524/01 09:52TITINN1Full House5,000
3624/01 09:52MODAR98Full House1,000
3724/01 09:52B4POKATFull House1,000
3824/01 09:52HHHH010Full House10,000
3924/01 09:52JAKARTA92Full House10,000
4024/01 09:52ONETWIN16Full House1,000
4124/01 09:52UNGUL99Full House5,000
4224/01 09:52APOK69Full House10,000
4324/01 09:52YUPAANDRI1Full House1,000
4424/01 09:52SKT6268585Full House5,000
4524/01 09:52FEBRIZALFull House5,000
4624/01 09:52QUENNA99Full House1,000
4724/01 09:52R0CKYO1Full House1,000
4824/01 09:52KUDA0022Full House1,000
4924/01 09:52EFENDIIFull House1,000
5024/01 09:52FORGIVEMEFull House5,000

Domino Multi Jackpot System

Ikutilah global jackpot yang tersedia di system kami, dengan system jackpot terbaru dan pertama di indonesia, anda dapat membeli jackpot dengan harga 100 rupiah saja dan menangkan hadiahnya hingga puluhan juta rupiah.

Jackpot bukanlah suatu keharusan untuk dibeli, namun kami memberikan suatu fitur tambahan untuk member tercinta dari www.v88pkr.com.

Terdapat tiga pilihan harga jackpot yang bisa anda beli yaitu :100,500 dan 1000 rupiah.

Hadiah dari Multi jackpot system www.v88pkr.com

  1. Murni Kecil x 50 harga jackpot yang anda beli.
      (contoh:anda membeli 1000 maka:1000 X 50 = 50.000)
  2. Murni Besar x 50 harga jackpot yang anda beli
      (contoh:anda membeli 1000 maka:1000 X 50 = 50.000)
  3. BALAK x 100 harga jackpot yang anda beli
      (contoh:anda membeli 1000 maka:1000 X 100 = 100.000)
  4. ENAM DEWA x 6666 harga jackpot yang anda beli
      (contoh:anda membeli 1000 maka:1000 X 6666 = 6.666.000)

Demikian adalah penjelasan dari Multi Jackpot www.v88pkr.com terima kasih dan selamat bermain salam hoki dari kami

Domino Jackpot Winner

TOP ENAM DEWA
No.TanggalNamaPriceWin
124/01 05:28SULTN99murni enam6,666,000
224/01 04:08KITTY995murni enam666,600
324/01 00:16TEMPEKTUOmurni enam3,333,000
423/01 23:59TM7ZINATMJmurni enam6,666,000
523/01 23:50CROSSBACKmurni enam6,666,000
TOP BALAK
No.TanggalNamaPriceWin
124/01 09:43VKOOL99balak100,000
224/01 09:36XX258balak50,000
324/01 09:31CAIR1210balak50,000
424/01 09:31ROAROAMUbalak100,000
524/01 09:27WAHYUBbalak50,000
LATEST JACKPOT
No.TanggalNamaPriceWin
124/01 09:53HERI1987murni kecil5,000
224/01 09:52JOKOTOK7murni besar5,000
324/01 09:52HAMAYOONmurni kecil25,000
424/01 09:52MONDOL7murni besar25,000
524/01 09:50RIYOSLAMETmurni kecil5,000
624/01 09:50BADASO11murni kecil25,000
724/01 09:50KALASI123murni besar50,000
824/01 09:49KALASI123murni besar50,000
924/01 09:48ROMLY78murni kecil5,000
1024/01 09:46SMALINGmurni kecil5,000
1124/01 09:45CECEWD2murni kecil5,000
1224/01 09:45GUSALI1murni kecil5,000
1324/01 09:44PLG07murni besar25,000
1424/01 09:43VKOOL99balak100,000
1524/01 09:40HIDAN3murni kecil25,000
1624/01 09:38PT88murni besar50,000
1724/01 09:38KBA6WTT4RHmurni besar50,000
1824/01 09:37QDVKNDQF4Nmurni kecil25,000
1924/01 09:36M4N17murni kecil50,000
2024/01 09:36KARUA77murni besar50,000
2124/01 09:36XX258balak50,000
2224/01 09:35ADIBANGKAmurni kecil25,000
2324/01 09:35MUZZARAB99murni besar50,000
2424/01 09:35UNDINE21murni besar5,000
2524/01 09:34XX258murni besar25,000
2624/01 09:34CREAT0Rmurni kecil50,000
2724/01 09:33KOJEK6murni kecil25,000
2824/01 09:32MUZZARAB99murni besar50,000
2924/01 09:32BALADA33murni kecil5,000
3024/01 09:31CAIR1210balak50,000
3124/01 09:31ROAROAMUbalak100,000
3224/01 09:30RASKAL90murni besar25,000
3324/01 09:28SABRINA113murni besar5,000
3424/01 09:27WAHYUBbalak50,000
3524/01 09:27HUDH4murni besar25,000
3624/01 09:27RAFBIL31murni kecil5,000
3724/01 09:27TOROKABOmurni besar50,000
3824/01 09:26AFRIS_99murni besar25,000
3924/01 09:26XX258murni besar25,000
4024/01 09:26PAREWA79murni kecil25,000
4124/01 09:25BALEERWEmurni kecil25,000
4224/01 09:25ROMLY78murni kecil5,000
4324/01 09:25ZHERYANmurni kecil5,000
4424/01 09:22HOMOETELmurni besar5,000
4524/01 09:19BOY0890murni kecil25,000
4624/01 09:17DIDIKSOmurni besar25,000
4724/01 09:16BRONIZ15murni besar50,000
4824/01 09:16AGISTA28balak50,000
4924/01 09:14BRONIZ15murni kecil50,000
5024/01 09:14INGGITAJAbalak50,000

Ceme Multi Jackpot System

Jackpot dilihat dari gabungan kartu pemain dengan kartu bandar. Bandar harus membeli jackpot sebanyak jumlah player yang sedang duduk. Sebagai contoh bila terdapat 3 pemain duduk bermain, dan bandar memutuskan untuk membeli jackpot Rp 1.000, maka pada periode tersebut bandar akan membeli jackpot sebanyak 3xRp1.000 = Rp3.000.

Jackpot bukanlah suatu keharusan untuk dibeli, namun kami memberikan suatu fitur tambahan untuk member tercinta dari www.v88pkr.com.

Terdapat tiga pilihan harga jackpot yang bisa anda beli yaitu :100,500 dan 1000 rupiah.

Hadiah dari Multi jackpot system www.v88pkr.com

  1. Murni Kecil x 50 harga jackpot yang anda beli.
      (contoh:anda membeli 1000 maka:1000 X 50 = 50.000)
  2. Murni Besar x 50 harga jackpot yang anda beli
      (contoh:anda membeli 1000 maka:1000 X 50 = 50.000)
  3. BALAK x 200 harga jackpot yang anda beli
      (contoh:anda membeli 1000 maka:1000 X 200 = 200.000)
  4. ENAM DEWA x 6666 harga jackpot yang anda beli
      (contoh:anda membeli 1000 maka:1000 X 6666 = 6.666.000)

Demikian adalah penjelasan dari Multi Jackpot www.v88pkr.com terima kasih dan selamat bermain salam hoki dari kami

Ceme Jackpot Winner

TOP ENAM DEWA
No.TanggalNamaPriceWin
124/01 09:24REMAIN_2murni enam666,600
224/01 09:16KOENGENEmurni enam666,600
324/01 09:11JHO81murni enam3,333,000
424/01 07:42MATAM1murni enam6,666,000
524/01 06:59DHANDY24murni enam6,666,000
TOP BALAK
No.TanggalNamaPriceWin
124/01 09:54JHO81balak100,000
224/01 09:53MONYET2balak200,000
324/01 09:53AEUDIAbalak200,000
424/01 09:52BANDENG303balak20,000
524/01 09:51RIZ83balak200,000
LATEST JACKPOT
No.TanggalNamaPriceWin
124/01 09:54JHO81balak100,000
224/01 09:54BERKAH_JPmurni kecil25,000
324/01 09:53PILIP99murni kecil50,000
424/01 09:53FRINKA25murni kecil50,000
524/01 09:53JAMBOL40murni kecil5,000
624/01 09:53MONYET2murni kecil50,000
724/01 09:53MONYET2balak200,000
824/01 09:53AEUDIAbalak200,000
924/01 09:53ZEREN33murni kecil50,000
1024/01 09:53NARUTO43murni kecil25,000
1124/01 09:52KE2112murni kecil50,000
1224/01 09:52BENT0999murni kecil25,000
1324/01 09:52SILUMAN60murni kecil25,000
1424/01 09:52RENCO69murni kecil25,000
1524/01 09:52ADRY11murni besar50,000
1624/01 09:52BANDENG303balak20,000
1724/01 09:51RIZ83balak200,000
1824/01 09:51ARTELA48murni kecil5,000
1924/01 09:51CF0C8392murni besar50,000
2024/01 09:51JEGOTmurni besar25,000
2124/01 09:51MBAHE123murni besar50,000
2224/01 09:50JUARA57murni kecil50,000
2324/01 09:50JUARA57murni kecil50,000
2424/01 09:50SACHETORTEmurni kecil5,000
2524/01 09:50OKEBOS69murni besar50,000
2624/01 09:49DIMAS_Wmurni besar5,000
2724/01 09:49A41A12murni kecil5,000
2824/01 09:49WADANTON05murni kecil50,000
2924/01 09:49DIAN8181balak20,000
3024/01 09:49SURYA28Abalak200,000
3124/01 09:48TH0MPH3Lmurni besar50,000
3224/01 09:48FACKYObalak200,000
3324/01 09:48EMPIRE47balak200,000
3424/01 09:48HOKKIE8877murni kecil50,000
3524/01 09:48CUPIK77balak100,000
3624/01 09:48TENDO87murni kecil50,000
3724/01 09:48GDX178murni kecil5,000
3824/01 09:47HOKKIE8877murni kecil50,000
3924/01 09:47YENSA79murni kecil5,000
4024/01 09:47JUARA57murni besar50,000
4124/01 09:47WANTO717murni besar50,000
4224/01 09:47I534Nmurni besar5,000
4324/01 09:47REJEKIMANAmurni kecil50,000
4424/01 09:47AHID22murni kecil5,000
4524/01 09:46FR_Dmurni besar50,000
4624/01 09:46GASSSTRUSSmurni besar5,000
4724/01 09:46PUANGRA9Abalak200,000
4824/01 09:46REJEKIMANAmurni kecil50,000
4924/01 09:46AHID22murni kecil5,000
5024/01 09:46ALIFSAMUDmurni besar50,000